Regional Weather Roundup
Issued by NWS Midland/Odessa, TX

Skip options and go directly to product.
Home | Oldest Version | Previous Version | Current Version | All | Graphics & Text | Save Text | Print | Product List | Glossary On

Skip product version selection by date and time.   
116
ASUS44 KMAF 041610
RWRMAF
MIDLAND AREA WEATHER ROUNDUP
NATIONAL WEATHER SERVICE MIDLAND TX
1100 AM CDT SAT JUL 04 2015

...IN SOUTHWEST TEXAS AND SOUTHEAST NEW MEXICO...

CITY           SKY/WX    TMP DP  RH WIND       PRES   REMARKS
ALPINE         CLOUDY    80  61  51 SW6       30.15F
ANDREWS        FAIR      81  66  59 S10       30.07F
ARTESIA        SUNNY     81  64  57 S6G12     30.08F
BIG SPRING     SUNNY     82  66  58 S9G17     30.07F
CARLSBAD       SUNNY     79  64  60 SE6       30.06R
DRYDEN           N/A     78  69  73 VRB7      30.01S
FORT STOCKTON  MOSUNNY   79  66  64 SE14      30.04S
GUAD PASS      SUNNY     75  59  57 NE15G21   30.19S
HOBBS          MOSUNNY   77  64  65 CALM      30.10F
MARFA          MOSUNNY  N/A N/A N/A S5        30.15S
MIDLAND AIRPK  MOSUNNY   81  66  60 S9G16     30.06F
MIDLAND INTL   MOSUNNY   79  67  66 SE10      30.05F
ODESSA         PTSUNNY   79  65  62 S15       30.06F
PECOS          PTSUNNY   82  65  56 E5        30.02S
PRESIDIO       PTSUNNY   86  63  45 NE5       30.00S
SEMINOLE       MOSUNNY   81  63  54 SE5       30.09S
SNYDER         MOSUNNY   79  69  72 SW9       30.06R
WINK           MOSUNNY   81  66  60 SE12      30.03R
$$
...OTHER STATIONS IN TEXAS...

CITY           SKY/WX    TMP DP  RH WIND       PRES   REMARKS
ABILENE        MOSUNNY   85  69  58 SW9       30.03S
AMARILLO       SUNNY     78  60  53 SE8       30.09S
AUSTIN         PTSUNNY   84  74  71 S14       30.01F
BROWNSVILLE    PTSUNNY   87  76  69 SE21      29.98R
CORPUS CHRISTI PTSUNNY   87  75  67 SE16G25   29.99S
DALLAS FTW     MOSUNNY   88  71  57 SW12      29.98S
DEL RIO        CLOUDY    79  70  74 SE10      29.97F
EL PASO        PTSUNNY   83  59  44 VRB3      30.06S
HOUSTON INT    PTSUNNY   87  75  67 SW9       30.03S
LUBBOCK        MOSUNNY   81  65  58 SW8       30.08S
SAN ANGELO     MOSUNNY   84  69  60 SE9       30.03S
SAN ANTONIO    PTSUNNY   85  72  65 S15G22    30.01F
WACO           PTSUNNY   84  71  65 S15       30.02R
WICHITA FALLS  NOT AVBL
$$
...OTHER LOCATIONS IN NEW MEXICO...

CITY           SKY/WX    TMP DP  RH WIND       PRES   REMARKS
ALAMAGORDO     SUNNY     79  59  50 CALM      30.10F
ALBUQUERQUE    PTSUNNY   78  56  46 VRB5      30.17F
CANNON AFB     SUNNY     76  65  68 W9        30.12S
CLOVIS         MOSUNNY   77  63  61 W9          N/A
HOLLOMAN AFB   SUNNY     80  62  52 SW5       30.08S
ROSWELL        SUNNY     81  63  54 VRB6      30.07F
RUIDOSO        NOT AVBL
SANTA FE       SUNNY     75  54  47 MISG      30.23S
TRUTH OR CONSE SUNNY     80  59  48 S8        30.13S
TUCUMCARI      SUNNY     80  62  54 SW9       30.07F
$$

USA.gov is the U.S. government's official web portal to all federal, state and local government web resources and services.